Vertical_Velocity
1 0 -1 0 0 -0 4 -1 -2 -0 -1 -0 1 -2 3 5 23 4 2 14 -8 -1 3 5 -4 -8 9 7 -3 -7 7 8 3 6 5 -3 2 -5 1 -2 -3 -7 -4 -1 2 2 -9 -1 3 -5 -2 0 0 1
2 -2 -0 1 -0 -1 2 -5 2 -2 -5 5 -3 2 5 9 37 -1 -3 1 11 -4 -3 4 4 -2 -4 -8 -2 1 -8 -1 -6 2 2 2 1 2 -4 -3 2 3 -8 -11 -10 -12 -1 -3 -1 1 1 -1 -0 -0
1 -1 -2 1 1 -0 5 -2 3 -6 8 -2 -6 -15 -3 16 1 -4 -5 3 5 -9 5 4 4 -0 1 4 2 -4 1 -3 1 5 -1 -1 4 -2 -2 -2 -2 1 -0 -2 -2 -1 -2 0 -2 3 -2 -5 -3 -0
1 -2 -1 1 1 -3 13 -1 2 -2 21 1 4 -3 6 9 9 2 -18 -1 -5 -4 -5 2 3 1 -5 -3 0 -7 -5 1 1 3 -1 0 2 2 -1 -6 -4 -3 -1 -2 -2 0 1 -1 -2 -0 -2 1 -0 -1
0 -2 -1 1 2 -1 -2 2 3 -1 6 7 4 2 -5 2 3 12 6 1 -1 -14 -2 1 -1 -0 -0 0 5 9 -1 2 2 5 1 -1 -0 -1 -1 0 1 -3 -6 -4 -5 -2 -2 -4 -5 -2 -5 -4 1 1
1 -1 -1 0 1 3 1 11 1 -0 -3 6 12 3 -5 -8 -6 -12 -5 4 -10 -23 -7 1 2 6 7 1 -2 3 -5 6 -1 3 -1 -2 -3 2 -1 -1 -4 -1 -2 -4 -3 -3 -1 -1 -0 2 2 -1 -0 3
1 -1 -1 0 0 4 5 1 2 2 1 5 31 13 -1 5 19 6 -6 -0 1 -5 -8 -1 -1 -3 1 2 3 -0 4 1 -0 -2 1 -1 -0 1 -0 -0 -1 -1 -2 -3 2 -3 -0 -2 -1 -0 2 0 -1 0
0 -0 -0 -1 1 -4 1 -0 -1 8 1 4 -0 3 20 14 4 -0 -7 -3 9 -5 -8 -1 0 2 -0 -0 1 1 1 0 0 -1 1 0 -1 0 1 -3 1 1 3 3 0 1 -2 2 0 1 3 2 -0 0
-0 0 0 -0 -1 2 -9 1 4 11 38 9 -2 -1 -5 3 -3 1 3 19 11 -4 -2 -1 -3 -1 2 -1 0 -0 -1 1 -2 0 0 4 1 -2 -6 -2 -1 -2 -11 -8 3 2 1 2 1 1 1 7 0 -0
-2 1 0 1 1 1 -1 -5 2 1 13 15 -3 -3 -2 13 9 -5 -7 -6 -4 -1 -1 -1 0 1 -2 0 1 1 0 -0 1 2 -0 2 -3 -5 -2 -1 1 1 1 -1 -3 6 6 4 -1 -2 -1 -0 -2 -2
-1 -0 1 1 1 1 1 -3 -3 -2 -3 -1 -4 -1 7 5 -2 -4 -0 -2 1 -0 -0 0 -1 -1 -2 -1 -1 -0 -1 -0 1 3 4 -1 -2 -2 -0 -3 -0 3 -2 -1 5 6 7 3 -9 -7 2 3 1 -1
-1 -1 1 -0 1 2 0 -0 -5 -0 -3 -4 -8 3 0 -4 -1 -5 0 2 0 -1 2 -1 0 -2 1 -0 -1 1 0 0 -0 -0 1 -0 -5 -1 2 1 2 -2 0 -1 1 -1 -2 0 0 -5 -6 1 2 -3
-1 -0 1 -0 0 3 1 4 1 8 0 -1 -3 -5 -2 -1 -5 -4 0 1 0 0 -0 1 2 -2 1 0 -0 -0 1 -1 1 2 -2 -3 -1 1 0 1 0 4 1 4 0 3 4 -3 3 3 -6 2 3 0
0 -1 0 0 0 3 3 -4 -7 -8 -5 -0 -2 -2 -4 -1 -0 -0 -1 -1 -0 -1 1 -1 0 -1 0 -1 -0 -1 -0 2 2 1 -3 -2 -1 7 -2 2 0 3 5 4 1 2 2 1 1 2 2 -1 -2 1
1 -0 0 1 0 0 2 1 0 -0 1 -1 -2 -1 -0 1 -0 0 0 -2 2 0 -1 -0 -1 -3 1 -0 0 0 2 -0 -2 -2 -1 -1 2 -1 2 1 1 -1 1 3 2 -1 1 1 -0 -1 7 2 -1 -3
1 1 -2 2 -0 1 1 3 3 -1 -0 -0 -3 -2 1 -0 1 0 1 1 1 1 -1 -3 -0 -0 0 -1 0 -1 1 -2 -2 -0 0 1 4 2 -1 1 3 1 1 -0 2 2 1 3 0 -3 1 4 1 2
2 -1 0 2 1 3 4 4 0 -0 -1 -1 1 -0 -0 -0 -0 1 -1 2 1 -3 -0 -1 -1 -2 0 0 0 -0 -1 1 1 1 2 1 4 -1 0 2 2 4 3 2 -2 0 0 4 4 1 -4 4 6 3
-1 -0 0 1 2 6 3 -0 -2 -1 -0 0 -0 1 -0 1 0 1 -1 -3 -3 -1 1 -2 -2 1 -1 -0 -0 -0 0 0 2 2 1 0 7 3 7 -3 1 1 -0 2 6 2 4 -0 -1 -2 3 2 1 2
4 -0 1 1 2 1 -1 -1 -1 -1 0 1 1 1 1 1 2 -1 0 2 -0 -0 -0 -1 -1 0 0 0 -0 1 -1 0 -0 1 4 4 5 4 -1 -0 0 1 -0 2 3 -2 2 9 1 0 -1 1 -1 -1
2 1 1 4 3 -1 -1 -0 0 -2 0 2 1 -1 1 0 -1 2 2 0 0 1 -2 -1 1 1 2 2 0 -1 -0 -0 -3 -3 2 4 4 4 2 1 -2 1 -0 4 3 1 -3 -4 -1 0 1 1 -1 -2
3 3 4 4 -2 -2 -2 0 -1 -0 -0 -1 1 1 0 -2 -1 -1 -1 -1 -4 1 -0 2 1 2 1 4 2 2 0 2 1 -5 -8 -2 4 7 1 1 1 -0 -3 1 -1 1 0 -1 -1 1 1 -0 -1 -3
1 2 1 2 -3 -1 -3 -0 -0 0 -2 1 -1 0 -0 -1 -0 -0 1 -5 0 2 2 -1 1 2 4 0 1 2 1 -1 3 -4 0 4 -3 1 1 2 1 -1 2 1 2 -0 1 1 -1 -3 -3 -3 -2 0
2 0 -2 -2 -4 -2 1 0 -1 0 -1 2 -0 -1 -0 -0 0 2 -2 1 2 2 2 1 2 4 -0 3 1 2 7 2 -5 1 2 -2 1 4 3 4 5 -3 -4 1 2 -1 -3 -1 1 1 1 0 -0 -1
2 -3 -2 -2 -2 -2 1 -1 0 -1 -0 -1 -1 0 -0 0 -0 -3 0 0 2 3 3 2 6 -1 3 8 -1 5 3 2 -5 -0 5 -2 -5 -0 0 -3 -1 -1 0 -2 0 0 1 0 0 -0 -0 0 -0 -0
-7 -4 -5 -0 1 -4 -1 -1 -0 -2 -0 0 -1 0 -1 -1 -2 -1 0 1 2 3 2 3 3 2 -10 -1 2 2 6 4 -7 -9 2 5 -5 -1 0 1 1 0 3 2 -1 -0 -1 0 1 0 -0 -1 -1 -1
-5 -2 -7 -2 -1 -4 -1 -1 -1 -1 -1 -1 0 1 -1 -2 -2 -0 0 0 0 2 2 2 -5 -2 1 4 -3 0 -1 5 1 -8 -1 5 6 0 -2 -2 -1 0 0 0 0 -1 -2 -2 -2 -2 -1 -1 -1 -1
-2 -1 1 2 -1 -2 -1 -0 -0 -3 -1 -1 -0 -0 -2 -2 -0 0 1 -0 1 2 2 2 5 1 -4 -2 1 0 1 5 4 -5 -4 -1 -1 -2 2 -0 -1 -1 -1 -1 -2 -1 -1 -1 -1 -1 -1 -2 -1 -1
-1 -1 -5 -1 -1 0 -2 -0 -1 -1 -0 1 -4 -1 -2 -3 2 4 1 -1 0 2 1 0 -0 3 0 -0 1 -0 -2 2 0 1 0 -0 1 1 1 -1 -1 -1 -1 -0 -0 -1 -2 -2 -2 -2 -1 -0 -0 -1
-1 2 -4 -1 -0 -1 -0 -1 -1 1 2 -2 -3 1 2 1 3 3 3 0 3 2 -3 -3 -1 4 -1 0 1 3 3 4 -0 -1 0 -3 -1 0 1 1 -0 -0 -1 -1 -1 -1 -2 -2 -1 -1 -1 -1 -1 -1
-0 3 -3 -0 -2 1 1 2 1 2 2 -0 -4 -3 -1 3 7 4 2 4 2 1 0 1 -2 5 -4 -1 -4 -0 -0 0 1 1 -5 -3 -2 -1 -1 -0 -1 -1 -1 -2 -2 -2 -2 -2 -3 -2 -2 -2 -1 -1
2 -0 -2 -1 1 2 5 7 4 1 -3 1 4 -8 -1 2 7 7 2 4 4 3 2 -1 0 6 2 1 1 -1 -5 -0 -0 -1 -1 -2 -2 -1 -0 -0 -1 -1 -1 -0 -2 -3 -3 -2 -0 -1 -1 -1 -2 -2
-1 -1 -2 -0 2 5 5 -2 -1 -2 5 -1 1 -0 0 -1 -1 1 7 5 8 1 2 1 -2 -2 1 0 -0 -2 1 -3 -0 -0 0 -1 -2 -1 -1 -1 -1 -1 -2 -3 -3 -2 -1 -0 -1 -1 -1 -1 -1 -1
-1 -0 1 -1 -0 1 1 -3 0 -0 -2 -1 1 0 0 -0 0 1 3 4 4 3 0 -1 0 -0 0 2 1 -2 -0 -2 -2 -1 -1 -1 -1 -2 -2 -2 -2 -2 -3 -2 -1 -1 -1 -1 -2 -2 -3 -2 -1 -1
Height
1296 1290 1283 1276 1267 1257 1248 1241 1234 1227 1218 1210 1209 1212 1217 1223 1224 1234 1242 1252 1265 1272 1282 1291 1297 1302 1315 1326 1329 1328 1342 1343 1348 1350 1340 1330 1329 1328 1329 1329 1328 1330 1337 1341 1351 1347 1335 1325 1332 1327 1323 1322 1324 1322
1289 1284 1277 1270 1260 1251 1242 1235 1229 1222 1213 1207 1205 1205 1205 1212 1217 1232 1243 1251 1265 1274 1283 1289 1294 1299 1306 1308 1312 1324 1323 1321 1326 1335 1333 1318 1317 1319 1308 1316 1327 1328 1322 1326 1328 1319 1318 1321 1319 1318 1317 1320 1323 1324
1283 1278 1272 1265 1255 1245 1237 1232 1227 1221 1216 1212 1209 1202 1196 1207 1220 1235 1245 1254 1266 1274 1286 1292 1295 1299 1302 1306 1307 1318 1315 1317 1319 1321 1324 1320 1307 1304 1305 1303 1313 1319 1317 1321 1322 1312 1317 1316 1319 1314 1314 1319 1323 1324
1278 1273 1268 1262 1252 1242 1235 1231 1227 1223 1219 1218 1217 1218 1220 1225 1232 1239 1248 1256 1262 1268 1281 1291 1293 1296 1300 1303 1306 1309 1311 1313 1319 1323 1324 1316 1307 1304 1298 1296 1294 1303 1315 1318 1317 1313 1313 1315 1315 1313 1315 1316 1319 1324
1274 1269 1265 1259 1251 1242 1235 1230 1227 1224 1222 1222 1224 1225 1229 1234 1239 1246 1255 1260 1262 1265 1281 1291 1293 1295 1296 1298 1301 1300 1305 1310 1311 1312 1309 1309 1296 1300 1298 1297 1291 1291 1300 1306 1299 1300 1304 1306 1306 1310 1314 1316 1318 1321
1270 1266 1262 1257 1250 1242 1235 1229 1228 1226 1225 1224 1227 1229 1233 1238 1243 1249 1257 1262 1263 1272 1277 1287 1292 1292 1292 1293 1294 1297 1299 1300 1301 1299 1298 1305 1295 1286 1285 1285 1276 1277 1285 1292 1297 1299 1303 1304 1305 1308 1310 1311 1314 1319
1267 1263 1260 1255 1250 1242 1237 1230 1228 1227 1227 1226 1226 1231 1237 1243 1247 1250 1255 1258 1266 1271 1276 1288 1289 1290 1290 1291 1291 1292 1293 1291 1294 1298 1292 1287 1286 1283 1280 1274 1268 1273 1279 1287 1291 1294 1302 1304 1303 1303 1307 1308 1312 1321
1264 1261 1258 1254 1250 1245 1239 1234 1230 1228 1229 1229 1230 1233 1237 1243 1247 1252 1254 1259 1266 1272 1280 1284 1288 1289 1289 1290 1291 1289 1287 1289 1293 1291 1287 1283 1281 1286 1277 1270 1267 1271 1277 1282 1286 1288 1293 1299 1304 1306 1306 1305 1310 1320
1260 1259 1256 1253 1250 1247 1242 1237 1233 1229 1229 1232 1234 1237 1240 1245 1249 1254 1259 1262 1265 1272 1274 1279 1281 1282 1286 1289 1289 1290 1289 1289 1290 1286 1283 1283 1281 1274 1261 1263 1265 1268 1269 1276 1285 1289 1293 1296 1298 1303 1306 1308 1309 1320
1257 1256 1254 1252 1249 1247 1245 1241 1237 1235 1234 1235 1238 1241 1246 1250 1251 1256 1261 1263 1264 1267 1270 1275 1279 1281 1286 1287 1289 1290 1289 1287 1282 1281 1283 1280 1274 1266 1261 1263 1265 1265 1266 1271 1280 1287 1288 1291 1294 1302 1308 1312 1318 1325
1254 1253 1252 1250 1248 1246 1245 1244 1241 1239 1239 1237 1241 1247 1250 1252 1255 1258 1263 1265 1268 1271 1273 1275 1276 1279 1284 1284 1286 1289 1288 1287 1281 1281 1282 1274 1262 1254 1258 1261 1261 1262 1268 1271 1275 1278 1281 1285 1291 1302 1312 1317 1324 1330
1251 1250 1250 1248 1247 1246 1245 1243 1242 1242 1242 1242 1244 1248 1252 1256 1259 1261 1266 1267 1268 1268 1271 1272 1276 1279 1282 1282 1284 1286 1284 1286 1278 1283 1283 1271 1260 1256 1253 1254 1260 1263 1268 1271 1276 1279 1283 1290 1297 1306 1314 1321 1328 1334
1247 1247 1247 1247 1246 1245 1243 1242 1241 1244 1245 1247 1250 1253 1255 1260 1264 1263 1268 1265 1266 1266 1269 1271 1274 1277 1280 1281 1283 1284 1282 1283 1281 1280 1268 1259 1257 1254 1253 1257 1261 1265 1269 1274 1277 1282 1287 1293 1302 1309 1314 1322 1331 1337
1244 1245 1245 1245 1245 1245 1246 1246 1246 1247 1248 1249 1251 1259 1257 1261 1259 1258 1256 1258 1262 1262 1266 1270 1273 1275 1278 1280 1281 1281 1281 1281 1282 1278 1267 1260 1259 1254 1256 1261 1265 1268 1273 1275 1280 1285 1290 1296 1304 1311 1318 1327 1334 1339
1241 1242 1243 1243 1244 1244 1245 1247 1248 1249 1249 1250 1251 1259 1259 1258 1259 1259 1259 1260 1262 1264 1266 1270 1274 1275 1277 1279 1279 1281 1282 1277 1272 1265 1265 1263 1259 1258 1262 1264 1268 1271 1275 1278 1284 1289 1294 1301 1308 1315 1323 1328 1336 1342
1239 1240 1240 1242 1243 1243 1244 1247 1249 1251 1251 1251 1253 1255 1256 1256 1258 1259 1261 1262 1264 1266 1268 1271 1273 1275 1275 1275 1278 1275 1274 1268 1263 1264 1266 1265 1265 1265 1267 1269 1272 1275 1279 1283 1289 1293 1299 1306 1311 1317 1325 1333 1339 1344
1236 1237 1238 1240 1242 1244 1246 1248 1250 1251 1252 1254 1256 1257 1257 1257 1258 1260 1261 1263 1265 1267 1269 1272 1274 1273 1276 1276 1274 1271 1269 1267 1268 1268 1267 1269 1269 1272 1275 1278 1281 1284 1287 1290 1295 1301 1307 1314 1318 1324 1330 1337 1340 1344
1234 1236 1237 1239 1241 1244 1246 1248 1250 1252 1254 1256 1256 1258 1258 1258 1259 1261 1263 1264 1266 1267 1268 1266 1267 1269 1269 1267 1268 1271 1272 1273 1272 1271 1272 1276 1277 1278 1281 1284 1289 1293 1296 1300 1304 1308 1313 1318 1323 1329 1335 1338 1342 1346
1233 1235 1237 1239 1241 1243 1246 1249 1251 1254 1257 1257 1258 1259 1260 1260 1262 1263 1263 1264 1265 1265 1266 1266 1267 1267 1268 1270 1271 1272 1274 1275 1276 1277 1278 1281 1283 1285 1287 1291 1297 1300 1305 1308 1311 1315 1320 1325 1328 1333 1337 1342 1344 1349
1232 1234 1236 1239 1241 1243 1246 1251 1252 1253 1257 1259 1260 1261 1262 1264 1265 1265 1265 1264 1264 1265 1267 1270 1272 1272 1271 1270 1270 1273 1275 1277 1277 1281 1285 1289 1292 1293 1295 1299 1303 1308 1312 1316 1319 1322 1326 1330 1336 1340 1343 1346 1349 1352
1232 1234 1237 1239 1241 1243 1248 1251 1254 1256 1258 1260 1262 1263 1266 1267 1267 1267 1267 1266 1267 1272 1273 1275 1275 1274 1273 1272 1273 1275 1278 1280 1281 1282 1288 1294 1298 1299 1303 1306 1310 1314 1318 1323 1326 1330 1334 1337 1340 1343 1345 1347 1350 1353
1230 1234 1237 1239 1242 1246 1250 1252 1254 1256 1259 1263 1264 1265 1268 1271 1272 1271 1270 1270 1276 1279 1278 1279 1280 1280 1280 1280 1282 1283 1284 1286 1288 1291 1296 1300 1304 1308 1313 1316 1319 1322 1325 1328 1331 1333 1336 1339 1342 1344 1347 1350 1352 1354
1231 1235 1237 1240 1244 1249 1256 1254 1255 1257 1259 1263 1265 1269 1272 1273 1273 1273 1277 1280 1282 1283 1282 1283 1284 1284 1284 1286 1288 1291 1293 1293 1297 1301 1305 1309 1312 1315 1318 1320 1323 1325 1327 1332 1334 1337 1339 1342 1345 1347 1348 1350 1352 1353
1232 1234 1238 1241 1245 1254 1254 1255 1256 1258 1260 1264 1269 1274 1274 1274 1275 1277 1282 1284 1286 1286 1286 1287 1288 1289 1291 1293 1295 1298 1300 1301 1304 1307 1311 1312 1315 1319 1322 1325 1328 1330 1333 1335 1338 1340 1342 1344 1346 1347 1348 1350 1351 1352
1232 1241 1241 1247 1248 1252 1258 1260 1261 1262 1269 1270 1272 1275 1276 1275 1281 1286 1286 1287 1288 1289 1290 1292 1293 1294 1295 1298 1301 1304 1306 1308 1309 1312 1317 1319 1320 1324 1327 1329 1332 1334 1337 1339 1340 1341 1343 1344 1346 1347 1348 1349 1349 1349
1238 1239 1242 1245 1249 1250 1254 1261 1264 1266 1268 1273 1274 1275 1276 1281 1288 1290 1287 1287 1288 1290 1292 1295 1296 1298 1300 1303 1305 1308 1310 1313 1314 1315 1320 1324 1326 1328 1330 1332 1335 1337 1339 1341 1342 1343 1344 1345 1346 1347 1347 1348 1347 1346
1240 1241 1239 1240 1242 1244 1251 1254 1256 1259 1268 1272 1272 1277 1280 1292 1292 1288 1288 1288 1289 1290 1293 1296 1298 1300 1302 1305 1308 1310 1313 1316 1318 1320 1323 1327 1329 1331 1334 1335 1337 1339 1341 1342 1343 1344 1345 1346 1346 1346 1345 1344 1343 1341
1233 1235 1240 1241 1242 1244 1250 1255 1258 1262 1263 1264 1268 1279 1283 1284 1284 1287 1287 1288 1289 1292 1295 1298 1300 1302 1304 1307 1310 1313 1316 1319 1321 1324 1326 1329 1332 1334 1336 1338 1339 1341 1342 1343 1344 1345 1345 1345 1344 1343 1341 1340 1339 1337
1233 1235 1237 1245 1245 1246 1250 1253 1255 1255 1257 1260 1270 1275 1280 1283 1285 1287 1288 1290 1292 1295 1297 1299 1303 1306 1308 1311 1314 1317 1320 1322 1324 1326 1328 1331 1335 1338 1339 1341 1342 1343 1344 1344 1344 1344 1343 1342 1341 1340 1338 1337 1335 1332
1235 1235 1239 1246 1249 1253 1254 1253 1254 1256 1258 1261 1267 1276 1281 1286 1289 1290 1291 1293 1296 1298 1301 1304 1306 1310 1312 1314 1317 1321 1324 1326 1328 1330 1330 1333 1336 1339 1341 1342 1343 1343 1343 1343 1343 1342 1341 1340 1339 1337 1335 1334 1331 1329
1233 1236 1242 1247 1252 1256 1257 1257 1259 1260 1262 1268 1272 1274 1282 1288 1292 1294 1296 1299 1301 1302 1305 1308 1311 1315 1317 1319 1321 1323 1325 1328 1330 1331 1333 1335 1337 1340 1341 1342 1343 1343 1342 1342 1342 1341 1340 1338 1337 1335 1333 1331 1329 1327
1236 1239 1244 1250 1255 1259 1259 1261 1266 1271 1275 1278 1282 1283 1286 1289 1296 1301 1303 1304 1307 1308 1311 1313 1315 1317 1320 1322 1324 1325 1327 1329 1332 1334 1336 1337 1339 1340 1341 1342 1342 1342 1342 1342 1341 1339 1338 1337 1335 1333 1331 1329 1328 1326
1242 1243 1245 1250 1255 1257 1261 1263 1270 1278 1281 1285 1288 1289 1290 1294 1301 1304 1306 1307 1310 1311 1313 1315 1317 1319 1322 1324 1326 1328 1331 1332 1335 1337 1338 1339 1340 1341 1342 1342 1342 1342 1342 1341 1341 1340 1338 1336 1334 1332 1331 1330 1329 1328